Location: Allaines
(49.9632°N, 2.9458°E)
Time: 02:40:40
(UTC+00:00)

FALCON 9 DEB - Pass Details

Date: 09 April 2020
Orbit: 428 x 442 km, 53.0° (Epoch: 03 June)

Event Time Altitude Azimuth Distance (km) Brightness Sun altitude
Rises 19:25:58 0° 223° (SW) 2,424 7.2 -8.8°
Reaches altitude 10° 19:28:09 10° 215° (SW) 1,557 6.1 -9.2°
Maximum altitude 19:31:26 38° 146° (SE) 685 3.7 -9.6°
Drops below altitude 10° 19:34:43 10° 77° (ENE) 1,561 5.5 -10.1°
Enters shadow 19:34:55 - 76° (ENE) 1,637 5.6 -10.2°
